User: anonymous   Login
Location: PACMO
(41.3967°N, 90.3760°W)
Time: 06:17:22
(UTC-06:00)
Language:

BREEZE-M DEB (TANK) - Orbit

View from above orbital plane
View from above orbital plane
View from above satellite
View from above satellite

Ground track
Ground track

The orbit data is extracted from the following two-line orbital elements,

1 31863U 07032B   17324.85779591 +.00000131 +00000-0 +10834-3 0  9995
2 31863 045.9102 193.4705 4968007 154.4254 242.1811 05.52134069208130
Epoch (UTC): 20 November 2017 20:35:13
Eccentricity: 0.4968007
inclination: 45.9102°
perigee height: 426 km
apogee height: 13861 km
right ascension of ascending node: 193.4705°
argument of perigee: 154.4254°
revolutions per day: 5.52134069
mean anomaly at epoch: 242.1811°
orbit number at epoch: 20813

The dashed part of the orbit path shows where the satellite is in the earth's shadow,  

DLR